Content
SEND FEEDBACK

Daily
Averages
Monthly
Summary
United States of America

HAZELWOOD, MISSOURI


Home > North America > United States > Missouri
Elevation: 570 feet     Latitude: 38 45N     Longitude: 090 22W

WEATHER
 
SELECT A DAY
Number of Records: 199,686;   Date Range: 1/1/95 - 10/22/14
 
SHARE

PRINT THIS DATA

[ ← Previous Day ]
WEATHER ALMANAC - SEPTEMBER 15, 2013
[ Next Day → ]
[ °C ]   °F
Weather ElementAverageHighLow
Temperature68.4 °F82 °F (3:54 pm)53.1 °F (6:54 am)
Dewpoint55.5 °F66 °F (6:54 pm)44.1 °F (1:54 am)
Humidity65.6 %90 % (11:54 pm)39 % (11:54 am)
Barometer30.04 in30.11 in (11:30 pm)29.97 in (4:54 pm)
Wind Speed4.5 mph9.2 mph (9:54 am)
Weather ElementAverage
Visibility9.8 mi
Wind DirectionS (180.8 °)

Weather ElementTotal
Precipitation0.04 in
Cooling Degree Days2.6 (Base 65)
Growing Degree Days17.6 (Base 50)
Averaged from 25 records on September 15, 2013
WEATHER CONDITIONS BREAKOUT
WIND DIRECTION BREAKOUT
WEATHER BY HOUR - SEPTEMBER 15, 2013
[ °C ]   °F
Local TimeTemperatureDewpointHumidityBarometerVisibilityWind DirectionWind SpeedGust SpeedPrecipitationEventsConditions
1:54 AM60.1 °F44.1 °F55 %30.02 in10.0 miSouth (170°)4.6 mphClear
2:54 AM57.9 °F44.1 °F60 %30.03 in10.0 miSSE (160°)6.9 mphClear
3:54 AM57.9 °F45.0 °F62 %30.02 in10.0 miSSW (210°)4.6 mphClear
4:54 AM55.9 °F45.0 °F67 %30.03 in10.0 miCalmClear
5:54 AM54.0 °F48.0 °F80 %30.04 in10.0 miCalmMostly Cloudy
6:54 AM53.1 °F46.0 °F77 %30.05 in10.0 miNNW (330°)3.5 mphMostly Cloudy
7:54 AM59.0 °F48.0 °F67 %30.06 in10.0 miCalmMostly Cloudy
8:54 AM64.9 °F48.9 °F56 %30.04 in10.0 miSW (220°)5.8 mphMostly Cloudy
9:54 AM69.1 °F48.9 °F49 %30.05 in10.0 miWSW (240°)9.2 mphMostly Cloudy
10:54 AM73.0 °F50.0 °F44 %30.04 in10.0 miSW (230°)6.9 mphMostly Cloudy
11:54 AM78.1 °F51.1 °F39 %30.03 in10.0 miSSW (210°)9.2 mphMostly Cloudy
12:54 PM78.1 °F52.0 °F40 %30.02 in10.0 miWSW (240°)5.8 mphOvercast
1:54 PM70.0 °F64.0 °F81 %30.01 in10.0 miCalm0.03 inOvercast
2:54 PM79.0 °F57.0 °F47 %30.00 in10.0 miSW (220°)6.9 mphOvercast
3:54 PM82.0 °F55.9 °F41 %29.99 in10.0 miWSW (240°)8.1 mphClear
4:54 PM80.1 °F60.1 °F50 %29.97 in10.0 miSouth (190°)4.6 mphMostly Cloudy
5:54 PM75.9 °F64.0 °F67 %29.98 in10.0 miCalmClear
6:54 PM72.0 °F66.0 °F81 %30.01 in10.0 miSW (220°)4.6 mph0.00 inRainLight Rain
7:54 PM71.1 °F64.9 °F81 %30.02 in10.0 miSW (220°)4.6 mph0.00 inMostly Cloudy
8:54 PM73.0 °F63.0 °F71 %30.05 in10.0 miNNW (340°)5.8 mphMostly Cloudy
9:54 PM71.1 °F63.0 °F75 %30.05 in9.0 miNNE (30°)5.8 mph0.01 inRainLight Rain
10:54 PM70.0 °F64.9 °F84 %30.07 in10.0 miCalm0.00 inMostly Cloudy
11:30 PM68.0 °F64.4 °F88 %30.11 in9.0 miNNW (330°)5.8 mph0.00 inMostly Cloudy
11:46 PM68.0 °F64.4 °F88 %30.11 in9.0 miNorth (360°)4.6 mph0.00 inOvercast
11:54 PM68.0 °F64.9 °F90 %30.09 in9.0 miNorth (360°)4.6 mph0.00 inOvercast
Hourly data recorded from KSUS, located miles away from Hazelwood, Missouri







STORIES FROM OUR PARTNERS